This is the latest recevied weather packets stored in our database for station/object N1ORT. If no packets are shown the sender has not sent any weather packets the latest 10 day(s).
| Time | Temp. | Humidity | Pressure | Rain* | Wind** | Luminosity | Snow |
|---|---|---|---|---|---|---|---|
| 1777198911 | 2.22° C | 90% | 1017.2 hPa | 0 mm | - | 23 W/m² | - |
| 1777198608 | 2.22° C | 90% | 1017.1 hPa | 0 mm | - | 18 W/m² | - |
| 1777198306 | 1.67° C | 90% | 1017.1 hPa | 0 mm | - | 17 W/m² | - |
| 1777198002 | 1.67° C | 90% | 1017.2 hPa | 0 mm | - | 15 W/m² | - |
| 1777197697 | 1.67° C | 90% | 1017.3 hPa | 0 mm | - | 12 W/m² | - |
| 1777197392 | 1.67° C | 90% | 1016.9 hPa | 0 mm | - | 9 W/m² | - |
| 1777197090 | 1.67° C | 90% | 1017 hPa | 0 mm | - | 5 W/m² | - |
| 1777196785 | 1.67° C | 90% | 1016.9 hPa | 0 mm | - | 2 W/m² | - |
| 1777196482 | 1.67° C | 90% | 1016.9 hPa | 0 mm | - | 1 W/m² | - |
| 1777196180 | 2.22° C | 89% | 1016.8 hPa | 0 mm | - | 1 W/m² | - |
| 1777195875 | 2.22° C | 89% | 1016.8 hPa | 0 mm | - | 0 W/m² | - |
| 1777195571 | 2.22° C | 89% | 1016.9 hPa | 0 mm | - | 0 W/m² | - |
| 1777195267 | 2.22° C | 89% | 1016.7 hPa | 0 mm | - | 0 W/m² | - |
| 1777194964 | 2.22° C | 88% | 1016.8 hPa | 0 mm | - | 0 W/m² | - |
| 1777194663 | 2.78° C | 87% | 1016.5 hPa | 0 mm | - | 0 W/m² | - |
| 1777194361 | 2.78° C | 87% | 1016.7 hPa | 0 mm | - | 0 W/m² | - |
| 1777194057 | 2.78° C | 87% | 1017 hPa | 0 mm | - | 0 W/m² | - |
| 1777193756 | 2.78° C | 86% | 1016.8 hPa | 0 mm | - | 0 W/m² | - |
| 1777193451 | 2.78° C | 86% | 1016.8 hPa | 0 mm | - | 0 W/m² | - |
| 1777193147 | 2.78° C | 86% | 1016.7 hPa | 0 mm | - | 0 W/m² | - |
| 1777192842 | 2.78° C | 85% | 1016.8 hPa | 0 mm | - | 0 W/m² | - |
| 1777192539 | 3.33° C | 85% | 1016.8 hPa | 0 mm | - | 0 W/m² | - |
| 1777192234 | 3.33° C | 85% | 1016.7 hPa | 0 mm | - | 0 W/m² | - |
| 1777191932 | 3.33° C | 84% | 1016.7 hPa | 0 mm | - | 0 W/m² | - |
| 1777191628 | 3.33° C | 84% | 1016.9 hPa | 0 mm | - | 0 W/m² | - |
* Rain latest hour (hover to see other rain measurements)
** Current wind speed in m/s (hover to see current wind gust speed)